Location: Akhaldaba
(42.0896°N, 44.4724°E)
Time: 18:07:56
(UTC+00:00)

Daily predictions for brighter satellites

Satellite Brightness Start Highest point End
(mag) Time Altitude Azimuth Time Altitude Azimuth Time Altitude Azimuth
Cosmos 407 Rocket 4.0 17:08:32 10° NNW 17:13:47 64° WSW 17:18:57 10° S
Cosmos 2263 Rocket 2.3 17:09:54 10° NNW 17:15:38 79° ENE 17:21:19 10° SSE
Landsat 7 4.2 17:19:41 10° SE 17:24:16 49° ENE 17:28:51 10° N
Cosmos 1420 Rocket 4.0 17:20:54 10° SSW 17:26:04 84° ESE 17:31:18 10° NNE
Cosmos 1190 Rocket 4.4 17:21:33 10° NNW 17:26:49 66° WSW 17:32:04 10° S
FALCON 9 DEB 3.5 17:25:46 10° SSW 17:29:00 41° SE 17:32:15 10° ENE
Cosmos 1758 3.9 17:25:38 10° N 17:29:23 39° ENE 17:33:03 10° SSE
Cosmos 1727 Rocket 4.4 17:24:05 10° SSE 17:30:04 47° E 17:36:02 10° NNE
CZ-2C R/B 4.3 17:26:09 10° NNE 17:30:39 39° E 17:35:06 10° SSE
USA 238 DEB 4.1 17:24:19 10° SW 17:30:49 69° NW 17:37:40 10° NNE
USA 238 4.1 17:24:26 10° SW 17:30:55 69° NW 17:37:46 10° NNE
Okean 2 3.4 17:29:36 10° S 17:33:42 89° WNW 17:37:48 10° N
Okean 1 Rocket 3.0 17:29:48 10° N 17:34:11 74° E 17:38:33 10° SSE
Lacrosse 5 rocket 2.3 17:31:46 10° S 17:34:37 21° SE 17:37:24 10° ENE
Cosmos 1707 2.8 17:31:11 10° S 17:34:58 61° E 17:38:50 10° NNE
Cosmos 2333 Rocket 3.9 17:32:03 10° SE 17:34:59 15° E 17:37:57 10° ENE
Cosmos 1605 Rocket 4.1 17:29:32 10° N 17:35:59 81° E 17:42:19 10° S
Cosmos 220 Rocket 4.4 17:32:00 10° SSW 17:36:17 66° WNW 17:40:32 10° NNE
Cosmos 1455 Rocket 4.4 17:32:37 10° NNE 17:36:19 25° ENE 17:39:32 12° SE
Meteor 2-20 4.5 17:30:34 10° S 17:36:35 67° E 17:42:38 10° NNE
Resurs 1-3 4.2 17:33:44 10° S 17:38:01 56° W 17:42:21 10° NNW
CENTAUR R/B 3.1 17:33:44 10° SW 17:39:30 62° NW 17:46:26 10° NNE
Cosmos 1378 Rocket 4.0 17:36:26 10° SSW 17:40:43 64° W 17:45:05 10° N
Cosmos 2285 Rocket 4.1 17:34:31 10° SSW 17:40:58 88° WNW 17:47:26 10° NNE
SPOT 3 Rocket 3.6 17:40:09 10° SSE 17:45:19 81° ENE 17:50:31 10° NNW
Cosmos 2219 Rocket 3.8 17:44:22 12° ESE 17:46:38 15° E 17:49:47 10° ENE
NOSS 8 (A) 4.2 17:45:19 10° SSW 17:48:56 80° SE 17:51:56 10° NE
Cosmos 1953 3.2 17:52:47 10° N 17:56:32 35° ENE 17:59:00 18° SE
Cosmos 1626 3.5 17:55:18 17° SE 17:56:51 22° E 17:59:47 10° NE
Ariane Rocket 4.2 17:54:41 10° SSW 17:59:25 38° W 18:04:11 10° NNW
Cosmos 1459 Rocket 4.3 17:58:41 10° N 18:04:31 48° ENE 18:08:51 18° SE
SL-16 R/B 2.8 18:02:29 10° SW 18:08:05 61° WNW 18:13:43 10° NNE
Cosmos 2360 Rocket 2.2 18:02:48 10° S 18:08:21 62° ESE 18:13:56 10° NNE
Cosmos 2322 Rocket 2.4 18:04:33 10° SSW 18:10:15 75° WNW 18:15:59 10° NNE
IGS 5A 4.4 18:06:43 10° S 18:10:41 43° W 18:14:41 10° NNW
Cosmos 1025 Rocket 3.6 18:09:01 20° SSE 18:11:33 39° E 18:15:38 10° NNE
KORONAS-FOTON 3.7 18:11:42 16° S 18:14:41 74° E 18:18:28 10° NNE
CARTOSAT-1 3.6 18:13:21 21° SSE 18:16:07 66° ENE 18:20:24 10° N
Resurs 01 Rocket 2.8 18:12:29 10° SSW 18:16:34 37° W 18:20:42 10° NNW
USA 81 4.3 18:11:43 10° N 18:16:58 71° W 18:21:53 12° S
USA 245 4.0 18:15:38 17° S 18:19:11 82° WSW 18:24:50 10° NNW
Cosmos 1461 3.3 18:17:10 10° NNW 18:21:17 51° NE 18:23:24 25° ESE
Meteor 1-16 Rocket 4.1 18:16:10 10° N 18:21:39 75° E 18:25:16 21° SSE
Cosmos 1110 Rocket 3.9 18:17:02 10° S 18:22:09 69° ESE 18:27:20 10° NNE
Cosmos 1975 Rocket 3.2 18:20:39 11° SSW 18:24:49 76° W 18:29:14 10° N
SPOT 5 3.1 18:23:05 23° SE 18:26:16 61° ENE 18:31:09 10° N
COSMOS 2428 3.7 18:24:27 22° SE 18:26:29 27° ESE 18:31:15 10° NE
JB-3 4.4 18:23:57 10° N 18:27:56 79° WNW 18:31:22 14° SSW
Cosmos 2322 4.1 18:24:53 20° SSE 18:28:20 41° ESE 18:33:36 10° NE
Cosmos 2237 4.5 18:25:56 10° SSW 18:31:36 70° WNW 18:37:18 10° NNE
Cosmos 1674 2.9 18:28:47 15° SSW 18:31:44 66° W 18:35:25 10° N
ATLAS CENTAUR R/B 2.9 18:29:42 10° NNW 18:33:32 30° NE 18:36:07 18° E
Cosmos 2123 Rocket 4.2 18:29:53 21° SSE 18:33:57 54° E 18:40:06 10° NNE
Terra 2.2 18:31:36 26° SE 18:34:00 49° ENE 18:38:35 10° N
Cosmos 2278 Rocket 4.3 18:32:41 10° N 18:36:06 16° NE 18:39:30 10° E
Lacrosse 5 2.9 18:38:43 10° WNW 18:43:15 34° SW 18:45:39 22° S
Cosmos 1300 3.6 18:40:20 10° N 18:43:50 33° ENE 18:44:39 30° ESE
Cosmos 1844 Rocket 2.7 18:40:31 10° NNW 18:46:14 90° E 18:49:14 29° SSE
Cosmos 2100 Rocket 4.2 18:40:49 10° NNW 18:47:10 73° W 18:51:39 20° S
ATLAS 3B R/B 2.5 18:44:02 10° SSW 18:50:28 67° ESE 18:57:08 10° NE
SL-8 R/B 3.8 18:47:34 10° WNW 18:52:22 71° NNE 18:55:04 25° ESE
Cosmos 405 3.2 18:50:32 10° N 18:53:55 51° ENE 18:54:21 47° ESE
ARIANE 5 R/B 3.2 18:51:39 24° SSW 18:54:03 50° W 18:58:26 10° NNW
Meteor 2-5 Rocket 3.8 18:54:02 31° SSE 18:56:32 57° E 19:02:01 10° NNE
Cosmos 1340 2.5 18:57:30 43° S 18:58:39 88° E 19:02:26 10° N
BREEZE-M DEB (TANK) 4.1 18:43:37 10° SW 18:59:36 51° SSE 19:03:53 10° ENE
Geosat 4.3 18:57:16 30° S 18:59:39 59° WSW 19:04:38 10° NW
Cosmos 1346 Rocket 4.1 19:00:20 25° E 19:00:20 25° E 19:03:38 10° NE
SL-08 R/B 4.5 18:55:33 10° N 19:01:57 78° E 19:05:10 31° SSE
H-2A R/B 3.3 18:57:54 10° NNE 19:02:00 75° ESE 19:03:14 43° S
Spot 2 Rocket 4.5 19:00:17 19° SSW 19:03:27 40° W 19:08:14 10° NNW
Cosmos 1908 4.4 19:00:36 10° NNW 19:04:12 37° W 19:05:52 24° SW
ERS-1 Rocket 3.4 19:04:31 27° SSW 19:07:05 55° W 19:12:03 10° NNW
Cosmos 2333 4.3 19:01:54 12° SSW 19:07:17 80° WNW 19:13:02 10° NNE
Cosmos 2016 Rocket 4.0 19:02:19 10° N 19:08:25 80° W 19:11:40 30° S
Cosmos 1544 Rocket 4.1 19:05:02 10° NNW 19:09:23 54° W 19:11:14 31° SSW
FALCON 9 DEB 3.0 19:08:39 37° WSW 19:09:42 73° NW 19:12:48 10° NE
FALCON 9 DEB 3.8 19:14:23 38° NE 19:14:23 38° NE 19:16:26 10° NE
Lacrosse 5 rocket 2.3 19:09:59 10° WSW 19:13:29 41° NW 19:16:55 10° NNE
USA 215 3.2 19:07:28 10° NE 19:13:58 64° SE 19:20:26 10° SW
Cosmos 2333 Rocket 2.3 19:13:58 17° SSW 19:18:28 79° WNW 19:24:15 10° NNE
FALCON 9 DEB 3.2 19:18:26 46° W 19:19:07 63° NW 19:22:12 10° NE
Cosmos 1725 Rocket 4.0 19:14:19 10° N 19:20:30 76° W 19:23:31 32° S
Cosmos 1302 Rocket 4.2 19:24:40 24° SSW 19:27:52 69° WNW 19:33:07 10° NNE
ATLAS CENTAUR R/B 3.9 19:29:06 26° ESE 19:29:18 26° ESE 19:36:27 10° NE
Cosmos 2219 Rocket 2.3 19:25:59 21° SSW 19:29:51 75° WNW 19:35:34 10° NNE
Meteor 2-10 Rocket 3.5 19:26:17 10° N 19:31:19 63° ENE 19:32:33 47° SE
Cosmos 1626 4.3 19:29:46 13° WSW 19:31:59 21° WNW 19:34:53 10° NNW
Cosmos 1844 4.3 19:27:31 10° NW 19:32:48 45° WSW 19:34:48 32° SSW
Centaur D AC-29 3.7 19:16:04 10° W 19:33:18 26° SW 19:35:10 24° SSW
Cosmos 1867 4.1 19:33:05 10° NNW 19:38:28 53° NE 19:40:32 34° ESE
Meteor 1-24 Rocket 3.7 19:38:57 36° SSW 19:41:07 73° W 19:46:35 10° N
DNEPR-1 R/B 3.4 19:37:36 10° NW 19:41:50 72° WSW 19:42:18 64° SSW
SL-16 R/B 4.2 19:42:35 13° E 19:42:35 13° E 19:44:56 10° ENE
Cosmos 2237 Rocket 2.5 19:45:34 42° SE 19:46:13 44° ESE 19:51:32 10° NE
USA 267 4.2 19:40:23 10° E 19:46:30 45° NNE 19:52:39 10° NW
Cosmos 2360 Rocket 4.5 19:48:31 10° W 19:52:49 22° NW 19:57:07 10° N
Iridium 2 3.8 19:55:41 65° NE 19:55:41 65° NE 19:59:05 10° N
Cosmos 389 Rocket 2.9 19:53:35 10° N 19:56:27 60° NNW 19:56:27 60° NNW
Cosmos 2228 3.0 19:55:18 10° NNW 19:59:42 71° W 20:00:06 66° SW
Cosmos 1486 Rocket 3.9 19:58:44 10° NNW 20:03:58 80° WSW 20:04:53 60° S
Meteor 1-21 Rocket 4.4 20:08:31 49° SE 20:09:28 55° E 20:15:01 10° NNE
COSMOS 2428 3.7 20:06:24 17° SW 20:10:29 45° WNW 20:16:01 10° NNE
Cosmos 1455 2.4 20:07:26 10° N 20:10:51 66° NNE 20:10:51 66° NNE
Terra 3.8 20:10:29 15° WSW 20:11:59 18° W 20:15:12 10° NW
ATLAS CENTAUR R/B 2.6 20:08:25 10° NW 20:12:14 34° WSW 20:12:14 34° WSW
Okean 1-7 Rocket 4.0 20:12:45 50° E 20:12:45 50° E 20:16:59 10° NNE
Cosmos 968 Rocket 3.8 20:07:48 10° NNW 20:12:43 49° WSW 20:13:28 45° SW
Cosmos 1992 Rocket 4.3 20:13:57 41° SW 20:15:38 62° WNW 20:20:51 10° NNE
Cosmos 1184 Rocket 4.1 20:17:13 37° NNE 20:17:13 37° NNE 20:19:20 10° NNE
Cosmos 1354 Rocket 4.2 20:12:21 10° NNW 20:17:41 67° ENE 20:18:45 53° ESE
Cosmos 2278 Rocket 2.1 20:15:19 10° NNW 20:21:01 89° ENE 20:22:12 58° SSE
Cosmos 192 4.2 20:21:01 69° SE 20:21:18 71° ESE 20:26:14 10° NNE
Cosmos 2058 Rocket 2.9 20:25:34 10° N 20:30:01 88° W 20:30:02 88° WSW
GEOS 3 Rocket 3.7 20:30:12 57° SSW 20:30:52 62° WSW 20:36:11 10° NW
Cosmos 1891 Rocket 4.5 20:28:58 10° N 20:35:07 74° W 20:36:44 51° SSW
NOSS 0 Rocket 4.3 20:32:46 31° SW 20:35:44 60° WNW 20:41:55 10° NNE
NOSS 3-1 (C) 4.1 20:37:48 32° ESE 20:37:48 32° ESE 20:42:35 10° NE
Cosmos 1726 Rocket 4.3 20:33:27 10° NNW 20:37:40 42° W 20:37:48 42° W
Cosmos 1513 Rocket 4.5 20:34:24 10° NNW 20:40:27 70° W 20:41:56 51° SSW
ATLAS 3B R/B 4.3 20:36:00 10° W 20:41:41 30° NW 20:47:33 10° NNE
GP-B 3.9 20:39:37 10° NNE 20:43:45 38° E 20:43:45 38° E
SL-4 R/B 2.4 20:46:49 57° N 20:46:49 57° N 20:50:09 10° NE
Lacrosse 5 rocket 4.5 20:52:22 10° NW 20:53:24 11° NNW 20:54:26 10° N
ALOS 2 3.0 20:55:17 51° W 20:55:17 51° W 20:59:23 10° NNW
Cosmos 1980 4.4 20:54:12 31° WSW 20:56:30 48° WNW 21:02:00 10° NNE
SJ 16-02 2.5 20:52:43 10° N 20:56:42 33° ENE 20:57:24 31° E
USA 215 4.2 20:50:39 10° NE 20:56:48 45° NNW 21:02:57 10° W
Nimbus 7 Rocket 4.4 20:51:14 10° NNE 20:57:19 84° WNW 20:58:54 53° SSW
Meteor 2-1 Rocket 4.3 20:53:36 10° NNW 20:59:00 58° W 20:59:50 52° SW
Cosmos 1943 Rocket 3.3 20:55:54 10° N 21:01:00 37° ENE 21:03:32 25° ESE
Cosmos 1441 Rocket 4.2 21:03:19 40° WNW 21:03:19 40° WNW 21:06:40 10° N
Cosmos 1703 4.3 21:04:21 39° WNW 21:04:21 39° WNW 21:07:50 10° N
BREEZE-M DEB (TANK) 4.5 21:02:13 10° WNW 21:06:03 43° N 21:17:14 10° E
Cosmos 1892 4.4 21:07:47 25° ENE 21:07:47 25° ENE 21:10:31 10° NNE
Resurs 1-4 Rocket 4.4 21:07:39 10° ENE 21:09:34 12° E 21:11:02 11° ESE
USA 32 3.9 21:04:50 10° N 21:10:07 86° E 21:10:46 69° SSE
Cosmos 1607 4.1 21:14:04 10° NW 21:20:13 51° WSW 21:20:59 49° SW
CZ-2D R/B 4.2 21:18:14 10° ENE 21:21:01 14° E 21:22:24 13° ESE
Cosmos 1626 Rocket 4.2 21:22:52 45° W 21:23:01 46° WNW 21:27:18 10° N
Thor Agena Rocket 3.6 21:17:55 10° N 21:23:09 68° WNW 21:24:03 57° SW
SL-16 R/B 2.1 21:24:27 58° SW 21:25:36 83° WNW 21:31:19 10° NNE
Cosmos 1634 Rocket 4.0 21:19:35 10° N 21:25:57 80° E 21:27:44 50° SSE
EO 1 Del DPAF 3.9 21:22:25 10° NNE 21:25:25 49° NE 21:25:25 49° NE
NOSS 2-3 (D) 3.9 21:27:58 52° E 21:27:58 52° E 21:31:53 10° NE
USA 267 3.2 21:27:29 47° SSE 21:29:19 65° SW 21:35:50 10° NW
Cosmos 1602 Rocket 3.9 21:29:45 55° W 21:29:51 55° W 21:34:16 10° N
Cosmos 2237 Rocket 3.7 21:27:22 18° W 21:30:25 29° NW 21:35:16 10° N
PSLV R/B 3.5 21:27:43 10° N 21:32:02 75° WNW 21:32:07 75° W
Cosmos 1763 Rocket 4.1 21:35:33 39° ESE 21:36:01 40° ESE 21:40:47 10° NE
Cosmos 1758 Rocket 3.5 21:37:10 78° W 21:37:12 78° W 21:41:39 10° N
CZ-4 R/B 4.4 21:33:56 10° NNE 21:38:23 42° E 21:38:45 41° ESE
Cosmos 405 Rocket 4.0 21:40:01 30° E 21:40:01 30° E 21:42:52 10° NNE
Cosmos 1825 3.7 21:40:36 28° E 21:40:36 28° E 21:43:38 10° NNE
X-37B 3.2 21:43:49 16° ENE 21:43:49 16° ENE 21:44:35 10° ENE
Cosmos 2369 Rocket 3.2 21:37:50 10° NNW 21:43:18 43° ENE 21:46:53 20° ESE
Meteor 1-4 Rocket 4.5 21:40:54 10° NW 21:42:37 21° WNW 21:42:37 21° WNW
NOSS 2-3 (C) 3.4 21:44:21 87° NE 21:44:21 87° NE 21:48:57 10° NE
DELTA 2 R/B (1) 4.5 21:55:04 32° SE 21:55:04 32° SE 21:58:51 10° E
Exosat Rocket 4.1 21:54:24 44° S 21:56:31 67° ESE 22:01:59 10° NNE
Cosmos-2242 3.1 21:52:14 10° NNW 21:56:33 63° W 21:56:33 63° W
ATLAS 5 CENTAUR R/B 3.8 22:01:36 11° ESE 22:01:36 11° ESE 22:02:31 10° E
Transit 2A Rocket 4.3 22:01:51 81° WSW 22:02:02 84° WNW 22:06:27 10° NNE
Cosmos 1408 2.8 22:03:01 65° NNW 22:03:01 65° NNW 22:06:15 10° N
Cosmos 2297 3.8 21:58:23 10° NNW 22:03:52 54° WSW 22:04:37 50° SW
Cosmos 2278 Rocket 4.3 22:02:08 10° WNW 22:04:01 12° W 22:04:01 12° W
Meteor 1-27 4.3 22:01:36 10° NNW 22:07:04 59° W 22:08:07 50° SW
Cosmos 724 4.5 22:01:09 10° NW 22:07:05 52° WSW 22:08:01 48° SW
Meteor 2-13 Rocket 4.4 22:06:31 48° S 22:08:25 88° W 22:14:38 10° N
YAOGAN 11 4.0 22:10:04 70° S 22:10:34 88° WSW 22:15:03 10° NNW
SL-16 R/B 3.2 22:12:13 18° SE 22:16:37 51° ENE 22:22:35 10° N
USA 229 DEB 3.6 22:15:16 39° SW 22:17:51 77° NW 22:24:41 10° NNE
USA 306 4.5 22:18:26 23° ESE 22:18:26 23° ESE 22:21:16 10° ENE
USA 229 3.6 22:15:23 39° SW 22:17:57 77° NW 22:24:47 10° NNE
Cosmos 1242 Rocket 4.3 22:16:00 10° NNE 22:19:07 27° ENE 22:20:12 23° ESE
Cosmos 990 Rocket 3.8 22:15:38 10° NNW 22:20:51 86° WSW 22:22:20 48° SSE
Cosmos 841 Rocket 4.0 22:20:41 39° SSE 22:22:03 49° ESE 22:27:00 10° NNE
Cosmos 540 Rocket 3.7 22:20:52 45° SSE 22:22:06 58° ESE 22:27:07 10° NNE
Cosmos 1606 4.2 22:20:45 10° NNE 22:24:11 30° ENE 22:25:32 24° ESE
Cosmos 1869 4.0 22:21:05 10° NNW 22:24:45 42° W 22:24:45 42° W
Cosmos 2221 2.9 22:21:42 10° N 22:25:57 58° E 22:27:04 43° SE
SL-4 R/B 4.2 22:23:34 10° WNW 22:26:31 21° NNW 22:29:20 10° NE
Cosmos 1898 Rocket 3.4 22:22:02 10° NNW 22:27:18 86° ENE 22:29:17 39° SSE
NOSS 3-1 (C) 4.2 22:25:09 24° W 22:28:01 41° NW 22:33:56 10° NNE
Cosmos 1437 Rocket 2.6 22:26:50 10° N 22:30:44 77° E 22:31:06 68° SE
Cosmos 1937 Rocket 3.8 22:25:36 10° NNW 22:30:56 67° ENE 22:33:56 26° SE
SJ 16-02 2.9 22:31:41 10° NW 22:34:22 21° W 22:34:22 21° W
NOSS 3-1 (A) 3.6 22:35:15 33° WSW 22:37:33 58° NW 22:43:42 10° NNE
Cosmos 1092 Rocket 4.3 22:36:10 28° SSE 22:39:20 58° E 22:45:21 10° NNE
MOZ.5/SAFIR/RUBIN 5/SL-8 3.8 22:39:50 50° SSW 22:40:46 61° W 22:45:30 10° NNW
Cosmos 1943 3.1 22:39:26 42° SSW 22:41:25 82° WNW 22:47:06 10° NNE
Cosmos 1892 4.4 22:42:44 21° WNW 22:42:54 21° WNW 22:45:54 10° NNW
Cosmos 2058 2.9 22:42:43 57° WSW 22:43:12 63° W 22:47:17 10° N
Cosmos 1633 3.2 22:43:39 40° ESE 22:44:11 43° E 22:47:33 10° NNE
Cosmos 1943 Rocket 3.0 22:39:50 10° NW 22:44:37 31° WSW 22:45:00 31° WSW
Cosmos 1814 Rocket 4.3 22:45:19 34° SSE 22:47:18 56° ESE 22:52:23 10° NNE
Cosmos 1603 3.8 22:45:37 38° SW 22:47:48 71° WNW 22:53:29 10° NNE
AQUA 4.2 22:43:19 10° NNE 22:48:02 58° E 22:49:53 34° SSE
NPP 3.7 22:43:17 10° NNE 22:48:41 75° ESE 22:51:00 35° S
Resurs 1-4 Rocket 2.0 22:44:40 10° NNE 22:50:01 85° WNW 22:52:06 39° SSW
Cosmos 1570 Rocket 4.3 22:49:06 35° S 22:51:11 61° ESE 22:56:20 10° NNE
Aureole 3 Rocket 3.4 22:49:23 10° N 22:53:14 65° E 22:56:02 25° SSE
ARGOS Delta rocket 4.2 22:51:14 10° N 22:56:42 69° WNW 22:58:57 36° SSW
ADEOS Rocket 3.8 22:51:33 10° SSE 22:58:52 63° ENE 23:05:33 10° N
USA 307 3.2 22:59:38 43° S 23:00:26 50° SE 23:04:34 10° ENE
SL-19 R/B 4.2 22:55:51 10° NNE 23:01:07 73° ESE 23:03:49 30° S
CZ-2D R/B 2.1 22:56:22 10° N 23:01:33 70° WNW 23:03:44 35° SW
Meteor 2-19 Rocket 4.4 22:58:19 30° S 23:01:34 87° E 23:07:44 10° N
Cosmos 2208 Rocket 4.3 23:01:08 31° S 23:03:43 64° ESE 23:09:07 10° NNE
Helios 1A 4.3 23:05:25 24° W 23:05:25 24° W 23:08:44 10° NW
SeaSat 1 4.0 23:01:09 10° NE 23:05:20 27° ESE 23:08:13 16° SSE
Cosmos 2195 Rocket 4.5 23:02:15 28° S 23:05:50 88° E 23:12:09 10° N
ADEOS II 2.4 23:00:42 10° NNE 23:05:55 62° ESE 23:08:51 26° S
Cosmos 2098 Rocket 3.9 23:04:11 33° SW 23:06:30 54° W 23:11:16 10° N
Helios 1B rocket 2.4 23:03:46 10° N 23:07:51 70° WNW 23:09:04 43° SW
SL-16 R/B 4.4 23:07:28 10° W 23:10:37 15° NW 23:13:47 10° NNW
Cosmos 372 Rocket 4.0 23:07:15 10° NNW 23:12:32 88° ENE 23:16:51 15° SSE
MINOTAUR 4 R/B 4.1 23:11:13 32° SSE 23:12:42 73° ENE 23:16:15 10° N
Cosmos 1825 4.0 23:15:22 18° W 23:15:52 18° WNW 23:18:31 10° NNW
USA 308 2.9 23:14:49 40° SSW 23:16:11 67° SE 23:20:25 10° NE
X-37B 1.6 23:16:04 17° WNW 23:18:14 46° N 23:21:19 10° ENE
Cosmos 1842 Rocket 4.3 23:16:56 10° NNW 23:20:52 34° W 23:21:50 30° WSW
IDEFIX/ARIANE 42P 3.3 23:19:02 10° NNE 23:24:07 47° E 23:28:10 15° S
NOSS 2-2 (D) 2.9 23:24:14 43° SW 23:25:16 86° NW 23:28:51 10° NE
Cosmos 2369 Rocket 3.2 23:22:16 10° NW 23:27:04 28° WSW 23:28:37 25° SW
Cosmos 1656 Rocket 4.1 23:24:08 10° NW 23:29:28 43° WSW 23:32:28 23° SSW
Meteor 1-29 2.9 23:28:15 10° N 23:31:39 66° WNW 23:32:48 37° SW
Lacrosse 4 Rocket 1.8 23:28:20 10° NNW 23:32:24 60° ENE 23:36:23 10° SE
Cosmos 921 Rocket 3.7 23:32:13 26° WSW 23:33:54 38° WNW 23:37:51 10° N
USA 305 2.9 23:33:06 28° WSW 23:35:16 80° NW 23:39:32 10° NE
Cosmos 1553 Rocket 4.2 23:30:55 10° N 23:37:15 73° E 23:43:25 10° SSE
Cosmos 1933 3.3 23:35:15 10° N 23:39:21 90° E 23:42:30 17° S
DELTA 2 R/B (1) 3.5 23:35:48 18° WSW 23:39:51 66° S 23:45:21 10° E
Cosmos 1437 3.2 23:37:40 10° NNW 23:40:13 32° W 23:40:13 32° W
USA 290 3.0 23:42:42 29° WSW 23:43:45 39° WNW 23:46:49 10° N
ATLAS 5 CENTAUR R/B 1.6 23:43:06 26° SW 23:45:11 62° NW 23:49:31 10° NNE
Cosmos 2026 Rocket 4.3 23:43:49 21° SSW 23:47:55 52° WNW 23:54:06 10° N
Cosmos 2151 3.6 23:51:08 23° SW 23:53:18 40° WNW 23:57:17 10° N
IRS-1D 3.6 23:48:22 10° N 23:53:27 63° WNW 23:57:04 19° SSW
Cosmos 1242 Rocket 4.3 23:51:19 10° NW 23:53:42 17° W 23:54:08 17° W
